TimeMST,TemperatureF,Dew PointF,Humidity,Sea Level PressureIn,VisibilityMPH,Wind Direction,Wind SpeedMPH,Gust SpeedMPH,PrecipitationIn,Events,Conditions,WindDirDegrees,DateUTC
12:58 AM,68.7,19.8,16,29.75,10.0,SSE,3.5,-,N/A,,Clear,160,2013-05-01 07:58:00
1:58 AM,64.8,19.2,17,29.76,10.0,SSE,4.6,-,N/A,,Clear,150,2013-05-01 08:58:00
2:58 AM,62.8,20.3,20,29.76,10.0,SSW,4.6,-,N/A,,Clear,200,2013-05-01 09:58:00
3:58 AM,61.5,20.8,21,29.77,10.0,SSW,3.5,-,N/A,,Clear,200,2013-05-01 10:58:00
4:58 AM,59.9,20.1,22,29.79,10.0,ESE,6.9,-,N/A,,Clear,110,2013-05-01 11:58:00
5:58 AM,58.6,20.3,23,29.83,10.0,South,6.9,-,N/A,,Clear,170,2013-05-01 12:58:00
6:58 AM,66.6,22.1,18,29.83,10.0,South,6.9,-,N/A,,Clear,170,2013-05-01 13:58:00
7:58 AM,73.2,21.7,14,29.86,10.0,SE,5.8,-,N/A,,Clear,140,2013-05-01 14:58:00
8:58 AM,76.5,22.5,13,29.86,10.0,Variable,5.8,-,N/A,,Clear,0,2013-05-01 15:58:00
9:58 AM,79.5,23.2,12,29.87,10.0,SSE,8.1,-,N/A,,Clear,160,2013-05-01 16:58:00
10:58 AM,80.6,17.2,9,29.87,10.0,WSW,6.9,-,N/A,,Clear,240,2013-05-01 17:58:00
11:58 AM,84.6,17.6,8,29.86,10.0,SW,6.9,-,N/A,,Clear,230,2013-05-01 18:58:00
12:58 PM,85.6,15.3,7,29.86,10.0,West,5.8,-,N/A,,Clear,270,2013-05-01 19:58:00
1:58 PM,86.4,13.8,7,29.86,10.0,WNW,9.2,-,N/A,,Clear,300,2013-05-01 20:58:00
2:58 PM,88.0,9.3,5,29.84,10.0,West,6.9,-,N/A,,Clear,270,2013-05-01 21:58:00
3:58 PM,88.0,9.5,5,29.83,10.0,WNW,11.5,-,N/A,,Clear,300,2013-05-01 22:58:00
4:58 PM,88.5,9.9,5,29.84,10.0,WNW,9.2,-,N/A,,Clear,300,2013-05-01 23:58:00
5:15 PM,87.8,14.0,6,29.95,10.0,North,15.0,19.6,N/A,,Clear,360,2013-05-02 00:15:00
5:31 PM,87.8,12.2,6,29.95,10.0,NW,13.8,19.6,N/A,,Clear,320,2013-05-02 00:31:00
5:58 PM,86.5,16.0,7,29.84,10.0,NNW,13.8,-,N/A,,Clear,330,2013-05-02 00:58:00
6:55 PM,83.8,14.5,8,29.82,10.0,NNW,10.4,-,N/A,,Clear,340,2013-05-02 01:55:00
7:55 PM,81.0,18.1,10,29.83,10.0,NNW,9.2,-,N/A,,Clear,340,2013-05-02 02:55:00
8:55 PM,76.3,20.5,12,29.85,10.0,NW,5.8,-,N/A,,Clear,320,2013-05-02 03:55:00
9:58 PM,74.1,21.0,14,29.91,10.0,NNW,5.8,-,N/A,,Clear,330,2013-05-02 04:58:00
10:58 PM,73.9,21.2,14,29.91,10.0,WNW,8.1,-,N/A,,Clear,290,2013-05-02 05:58:00
11:58 PM,68.7,22.3,17,29.93,10.0,SSW,4.6,-,N/A,,Clear,210,2013-05-02 06:58:00